TimeEST,TemperatureF,Dew PointF,Humidity,Sea Level PressureIn,VisibilityMPH,Wind Direction,Wind SpeedMPH,Gust SpeedMPH,PrecipitationIn,Events,Conditions,WindDirDegrees,DateUTC
12:15 AM,30.2,23.0,75,29.60,10.0,WNW,10.4,-,N/A,,Mostly Cloudy,300,2013-03-04 05:15:00
12:35 AM,30.2,21.2,69,29.60,10.0,NW,10.4,17.3,N/A,,Mostly Cloudy,310,2013-03-04 05:35:00
1:15 AM,30.2,21.2,69,29.61,10.0,WNW,10.4,16.1,N/A,,Overcast,290,2013-03-04 06:15:00
1:35 AM,30.2,21.2,69,29.61,10.0,WNW,11.5,16.1,N/A,,Overcast,300,2013-03-04 06:35:00
1:55 AM,30.2,19.4,64,29.61,10.0,WNW,12.7,17.3,N/A,,Overcast,300,2013-03-04 06:55:00
2:35 AM,28.4,19.4,69,29.61,10.0,WNW,8.1,-,N/A,,Overcast,290,2013-03-04 07:35:00
2:55 AM,28.4,17.6,64,29.62,10.0,West,9.2,-,N/A,,Scattered Clouds,280,2013-03-04 07:55:00
3:15 AM,28.4,17.6,64,29.62,10.0,WNW,11.5,18.4,N/A,,Partly Cloudy,300,2013-03-04 08:15:00
3:55 AM,28.4,17.6,64,29.62,10.0,West,10.4,16.1,N/A,,Scattered Clouds,280,2013-03-04 08:55:00
4:15 AM,26.6,17.6,69,29.62,10.0,WNW,9.2,-,N/A,,Partly Cloudy,290,2013-03-04 09:15:00
4:35 AM,26.6,17.6,69,29.63,10.0,WNW,9.2,-,N/A,,Clear,300,2013-03-04 09:35:00
4:55 AM,26.6,17.6,69,29.63,10.0,WNW,9.2,-,N/A,,Clear,300,2013-03-04 09:55:00
5:15 AM,26.6,17.6,69,29.63,10.0,WNW,9.2,16.1,N/A,,Clear,290,2013-03-04 10:15:00
5:35 AM,26.6,17.6,69,29.63,10.0,WNW,6.9,-,N/A,,Clear,290,2013-03-04 10:35:00
5:55 AM,26.6,15.8,64,29.63,10.0,West,12.7,17.3,N/A,,Clear,280,2013-03-04 10:55:00
6:55 AM,26.6,15.8,64,29.64,10.0,WNW,15.0,18.4,N/A,,Clear,290,2013-03-04 11:55:00
7:15 AM,26.6,15.8,64,29.65,10.0,WNW,12.7,20.7,N/A,,Clear,290,2013-03-04 12:15:00
7:35 AM,28.4,15.8,59,29.65,10.0,WNW,13.8,25.3,N/A,,Clear,290,2013-03-04 12:35:00
7:55 AM,28.4,17.6,64,29.65,10.0,NW,15.0,21.9,N/A,,Clear,310,2013-03-04 12:55:00
8:15 AM,28.4,17.6,64,29.65,10.0,WNW,15.0,20.7,N/A,,Clear,300,2013-03-04 13:15:00
8:35 AM,30.2,17.6,60,29.65,10.0,WNW,13.8,19.6,N/A,,Clear,290,2013-03-04 13:35:00
8:55 AM,30.2,17.6,60,29.65,10.0,NW,9.2,-,N/A,,Clear,320,2013-03-04 13:55:00
9:35 AM,32.0,17.6,55,29.63,10.0,WNW,18.4,27.6,N/A,,Clear,290,2013-03-04 14:35:00
9:55 AM,33.8,19.4,56,29.64,10.0,NW,16.1,26.5,N/A,,Clear,310,2013-03-04 14:55:00
10:15 AM,33.8,17.6,52,29.63,10.0,WNW,18.4,26.5,N/A,,Clear,300,2013-03-04 15:15:00
10:35 AM,33.8,19.4,56,29.63,10.0,West,18.4,23.0,N/A,,Partly Cloudy,280,2013-03-04 15:35:00
10:55 AM,33.8,19.4,56,29.62,10.0,WNW,17.3,26.5,N/A,,Scattered Clouds,290,2013-03-04 15:55:00
11:15 AM,33.8,19.4,56,29.62,10.0,WNW,15.0,24.2,N/A,,Scattered Clouds,300,2013-03-04 16:15:00
11:35 AM,35.6,19.4,52,29.62,10.0,WNW,18.4,25.3,N/A,,Scattered Clouds,290,2013-03-04 16:35:00
11:55 AM,35.6,19.4,52,29.62,10.0,WNW,17.3,25.3,N/A,,Scattered Clouds,300,2013-03-04 16:55:00
12:35 PM,37.4,19.4,48,29.61,10.0,NW,17.3,25.3,N/A,,Scattered Clouds,310,2013-03-04 17:35:00
12:55 PM,37.4,19.4,48,29.60,10.0,WNW,18.4,29.9,N/A,,Partly Cloudy,290,2013-03-04 17:55:00
1:15 PM,37.4,19.4,48,29.60,10.0,WNW,16.1,21.9,N/A,,Partly Cloudy,290,2013-03-04 18:15:00
1:55 PM,37.4,19.4,48,29.60,10.0,NW,19.6,27.6,N/A,,Mostly Cloudy,310,2013-03-04 18:55:00
2:15 PM,37.4,19.4,48,29.60,10.0,NW,16.1,23.0,N/A,,Scattered Clouds,310,2013-03-04 19:15:00
2:35 PM,35.6,19.4,52,29.60,10.0,WNW,17.3,23.0,N/A,,Clear,300,2013-03-04 19:35:00
2:55 PM,35.6,19.4,52,29.61,10.0,WNW,13.8,26.5,N/A,,Clear,300,2013-03-04 19:55:00
3:35 PM,37.4,19.4,48,29.61,10.0,WNW,15.0,-,N/A,,Partly Cloudy,300,2013-03-04 20:35:00
3:55 PM,37.4,19.4,48,29.61,10.0,West,15.0,21.9,N/A,,Clear,280,2013-03-04 20:55:00
4:15 PM,37.4,17.6,45,29.61,10.0,WNW,12.7,28.8,N/A,,Clear,300,2013-03-04 21:15:00
4:35 PM,37.4,19.4,48,29.62,10.0,NW,15.0,25.3,N/A,,Clear,310,2013-03-04 21:35:00
4:55 PM,35.6,17.6,48,29.63,10.0,NW,18.4,25.3,N/A,,Clear,310,2013-03-04 21:55:00
5:15 PM,35.6,19.4,52,29.63,10.0,WNW,9.2,21.9,N/A,,Partly Cloudy,290,2013-03-04 22:15:00
5:35 PM,35.6,17.6,48,29.64,10.0,NW,17.3,25.3,N/A,,Mostly Cloudy,310,2013-03-04 22:35:00
5:55 PM,35.6,19.4,52,29.65,10.0,WNW,15.0,24.2,N/A,,Mostly Cloudy,300,2013-03-04 22:55:00
6:35 PM,33.8,17.6,52,29.67,10.0,WNW,15.0,23.0,N/A,,Partly Cloudy,300,2013-03-04 23:35:00
6:55 PM,33.8,17.6,52,29.68,10.0,WNW,10.4,20.7,N/A,,Clear,300,2013-03-04 23:55:00
7:15 PM,33.8,17.6,52,29.68,10.0,NW,12.7,18.4,N/A,,Scattered Clouds,310,2013-03-05 00:15:00
7:35 PM,33.8,17.6,52,29.69,10.0,WNW,12.7,20.7,N/A,,Overcast,300,2013-03-05 00:35:00
7:55 PM,33.8,17.6,52,29.69,10.0,WNW,11.5,16.1,N/A,,Mostly Cloudy,300,2013-03-05 00:55:00
8:15 PM,32.0,17.6,55,29.69,10.0,WNW,13.8,18.4,N/A,,Partly Cloudy,300,2013-03-05 01:15:00
8:35 PM,32.0,17.6,55,29.70,10.0,NW,12.7,18.4,N/A,,Scattered Clouds,310,2013-03-05 01:35:00
9:15 PM,32.0,17.6,55,29.71,10.0,NW,15.0,24.2,N/A,,Mostly Cloudy,320,2013-03-05 02:15:00
9:35 PM,32.0,19.4,60,29.71,10.0,NNW,17.3,23.0,N/A,,Overcast,330,2013-03-05 02:35:00
9:55 PM,32.0,19.4,60,29.72,10.0,NW,13.8,19.6,N/A,,Overcast,320,2013-03-05 02:55:00
10:15 PM,32.0,19.4,60,29.72,10.0,NW,12.7,23.0,N/A,,Overcast,320,2013-03-05 03:15:00
10:35 PM,32.0,19.4,60,29.73,10.0,NW,16.1,19.6,N/A,,Overcast,320,2013-03-05 03:35:00
10:55 PM,32.0,19.4,60,29.73,10.0,NW,12.7,19.6,N/A,,Overcast,320,2013-03-05 03:55:00
11:15 PM,30.2,19.4,64,29.73,10.0,NW,15.0,24.2,N/A,,Overcast,320,2013-03-05 04:15:00
11:35 PM,32.0,19.4,60,29.74,10.0,NW,13.8,21.9,N/A,,Overcast,310,2013-03-05 04:35:00
11:55 PM,30.2,19.4,64,29.74,10.0,NW,15.0,20.7,N/A,,Overcast,320,2013-03-05 04:55:00